Regional Weather Roundup
Issued by NWS Sioux Falls, SD

Home | Current Version | Previous Version | Text Only | Print | Product List | Glossary On
Versions: 1 2 3 4 5 6 7 8 9 10 11 12 13 14 15 16 17 18 19 20 21 22 23 24 25 26 27 28 29 30 31 32 33 34 35 36 37 38 39 40 41 42 43 44 45 46 47 48 49 50
640
ASUS43 KFSD 081510
RWRFSD

WEATHER ROUNDUP FOR SE SOUTH DAKOTA/SW MINNESOTA/NW IOWA
NATIONAL WEATHER SERVICE SIOUX FALLS SD
900 AM CST THU DEC 08 2016

NOTE: "FAIR" INDICATES FEW OR NO CLOUDS BELOW 12,000 FEET WITH NO
SIGNIFICANT WEATHER AND OR OBSTRUCTIONS TO VISIBILITY.


SDZ038>040-050-052>070-081600-
SOUTHEAST SOUTH DAKOTA

CITY           SKY/WX    TMP DP  RH WIND       PRES   REMARKS
BROOKINGS      FLURRIES   7   3  84 NW20      30.48R WCI -13
CHAMBERLAIN    MOCLDY     9   2  73 W17G23    30.63R WCI  -9
HURON          PTCLDY     7   1  76 NW18      30.60R WCI -12
MADISON        FAIR       5   3  92 NW25G31   30.50R WCI -18
MITCHELL       CLEAR      9   2  73 NW22G30   30.63R WCI -11
SIOUX FALLS    PTCLDY     9   4  80 NW22G30   30.52R WCI -11
WINNER         CLOUDY     7  -2  66 NW13G23   30.63R WCI  -9
YANKTON        CLEAR    N/A N/A N/A NW24G30   30.59R
$$

MNZ071-072-080-081-089-090-097-098-081600-
SOUTHWEST MINNESOTA

CITY           SKY/WX    TMP DP  RH WIND       PRES   REMARKS
FAIRMONT       FLURRIES  14   9  80 NW25      30.41R WCI  -5
JACKSON        CLOUDY    12   7  79 NW21G26   30.41R WCI  -6
LUVERNE        CLEAR      9   3  78 NW18G28   30.50R WCI -10
MARSHALL       FLURRIES  13   7  77 NW26      30.45R WCI  -7
MONTEVIDEO     CLOUDY    12   9  85 N16G25    30.46R WCI  -4
PIPESTONE      CLEAR      9   3  78 NW16G22   30.46R WCI  -9
REDWOOD FALLS  FLURRIES  15   8  73 NW16G24   30.42R WCI  -1
TRACY          CLOUDY    14   9  80 NW21G29   30.45R WCI  -4
WINDOM         FLURRIES  12   9  85 NW20G28   30.41R WCI  -6
WORTHINGTON    CLEAR     10   5  80 NW20G30   30.44R WCI  -9
$$

IAZ001>003-012>014-020>022-031-032-NEZ013-014-SDZ071-081600-
NORTHWEST IOWA

CITY           SKY/WX    TMP DP  RH WIND       PRES   REMARKS
CHEROKEE       MOSUNNY   11   5  76 NW13G18   30.52R WCI  -4
DENISON        PTSUNNY   10   5  79 NW13G22   30.52R WCI  -5
ESTHERVILLE    SUNNY     12   7  80 NW22      30.42R WCI  -7
LE MARS        MOSUNNY   10   5  79 NW22G29   30.56R WCI  -9
ORANGE CITY    SUNNY      9   5  85 NW22G30   30.50R WCI -11
SHELDON        MOSUNNY   10   5  79 NW23G32   30.47R WCI -10
SIOUX CITY     MOSUNNY   13   3  64 NW21G30   30.56R WCI  -5
SPENCER        SUNNY     11   5  77 W28G36    30.45R WCI -10
STORM LAKE     SUNNY     10   5  79 NW25      30.46R WCI -10
$$

ABBREVIATIONS USED IN REMARKS
   TC - TEMPERATURE IN CELSIUS
  WCI - WIND CHILL INDEX
   HX - HEAT INDEX
  VSB - VISIBILITY





USA.gov is the U.S. government's official web portal to all federal, state and local government web resources and services.